When you browse on this site, cookies collect data to enhance your experience and personalize the content and advertising you see.
Visit our Privacy Policy to learn more. By continuing to use the site, you agree to this use of cookies and data.
  • In Sweden
  • List of Countries
  • For 7 days
  • Water Temperature
  • Satellite Maps
  • Weather Map
  • Weather Widgets
  • user-avatar
    Login

    Hourly Weather Leg

    Today, 27 May, Monday

    Time Temperature Precipitation Wind Pressure Humidity
    00:00 +13°C° 0 mm 3 mps 746 mmHg 90%
    01:00 +13°C° 0 mm 3 mps 746 mmHg 91%
    02:00 +13°C° 0 mm 3 mps 746 mmHg 92%
    03:00 +13°C° 0 mm 3 mps 745 mmHg 92%
    04:00 +13°C° 0 mm 3 mps 745 mmHg 92%
    05:00 +15°C° 0 mm 4 mps 745 mmHg 86%
    06:00 +17°C° 0 mm 4 mps 745 mmHg 80%
    07:00 +19°C° 0 mm 4 mps 745 mmHg 75%
    08:00 +21°C° 0 mm 5 mps 745 mmHg 68%
    09:00 +22°C° 0 mm 5 mps 745 mmHg 61%
    10:00 +24°C° 0 mm 6 mps 745 mmHg 54%
    11:00 +25°C° 0 mm 5 mps 745 mmHg 54%
    12:00 +26°C° 0 mm 5 mps 744 mmHg 53%
    13:00 +26°C° 0 mm 5 mps 744 mmHg 53%
    14:00 +26°C° 0.6 mm 4 mps 744 mmHg 57%
    15:00 +25°C° 0.6 mm 4 mps 744 mmHg 60%
    16:00 +25°C° 0.6 mm 3 mps 743 mmHg 64%
    17:00 +22°C° 0.2 mm 3 mps 743 mmHg 69%
    18:00 +21°C° 0.2 mm 3 mps 743 mmHg 75%
    19:00 +20°C° 0.2 mm 2 mps 743 mmHg 80%
    20:00 +19°C° 0 mm 2 mps 743 mmHg 81%
    21:00 +19°C° 0 mm 2 mps 743 mmHg 83%
    22:00 +18°C° 0 mm 2 mps 743 mmHg 84%
    23:00 +18°C° 0 mm 2 mps 742 mmHg 85%

    Tomorrow, 28 May, Tuesday

    Time Temperature Precipitation Wind Pressure Humidity
    00:00 +17°C° 0 mm 2 mps 742 mmHg 87%
    01:00 +18°C° 0 mm 1 mps 742 mmHg 89%
    02:00 +17°C° 0.9 mm 2 mps 741 mmHg 91%
    03:00 +16°C° 0.9 mm 2 mps 741 mmHg 94%
    04:00 +16°C° 0.9 mm 2 mps 741 mmHg 96%
    05:00 +17°C° 0.2 mm 3 mps 740 mmHg 91%
    06:00 +18°C° 0.2 mm 3 mps 740 mmHg 85%
    07:00 +20°C° 0.2 mm 4 mps 740 mmHg 79%
    08:00 +21°C° 0 mm 5 mps 740 mmHg 75%
    09:00 +22°C° 0 mm 5 mps 740 mmHg 70%
    10:00 +23°C° 0 mm 5 mps 740 mmHg 66%
    11:00 +23°C° 0.5 mm 5 mps 740 mmHg 67%
    12:00 +23°C° 0.5 mm 4 mps 740 mmHg 68%
    13:00 +24°C° 0.5 mm 3 mps 740 mmHg 69%
    14:00 +22°C° 0.8 mm 3 mps 739 mmHg 73%
    15:00 +22°C° 0.8 mm 3 mps 739 mmHg 77%
    16:00 +21°C° 0.8 mm 2 mps 739 mmHg 81%
    17:00 +20°C° 1.6 mm 2 mps 740 mmHg 82%
    18:00 +19°C° 1.6 mm 2 mps 740 mmHg 84%
    19:00 +19°C° 1.6 mm 1 mps 740 mmHg 86%
    20:00 +17°C° 0.4 mm 2 mps 741 mmHg 89%
    21:00 +17°C° 0.4 mm 4 mps 741 mmHg 92%
    22:00 +15°C° 0.4 mm 5 mps 741 mmHg 95%
    23:00 +14°C° 0.3 mm 5 mps 742 mmHg 95%

    Day after tomorrow, 29 May, Wednesday

    Time Temperature Precipitation Wind Pressure Humidity
    00:00 +13°C° 0.3 mm 5 mps 742 mmHg 95%
    01:00 +12°C° 0.3 mm 5 mps 743 mmHg 95%
    02:00 +10°C° 0.4 mm 6 mps 743 mmHg 94%
    03:00 +10°C° 0.4 mm 6 mps 744 mmHg 94%
    04:00 +9°C° 0.4 mm 6 mps 744 mmHg 93%
    05:00 +9°C° 0.2 mm 6 mps 745 mmHg 92%
    06:00 +9°C° 0.2 mm 6 mps 746 mmHg 90%
    07:00 +9°C° 0.2 mm 5 mps 746 mmHg 89%
    08:00 +10°C° 0 mm 5 mps 747 mmHg 83%
    09:00 +12°C° 0 mm 5 mps 748 mmHg 77%
    10:00 +14°C° 0 mm 5 mps 748 mmHg 72%
    11:00 +15°C° 0 mm 5 mps 749 mmHg 68%
    12:00 +16°C° 0 mm 5 mps 749 mmHg 65%
    13:00 +17°C° 0 mm 5 mps 749 mmHg 61%
    14:00 +17°C° 0 mm 5 mps 749 mmHg 61%
    15:00 +18°C° 0 mm 4 mps 749 mmHg 61%
    16:00 +18°C° 0 mm 4 mps 749 mmHg 61%
    17:00 +17°C° 0 mm 4 mps 750 mmHg 67%
    18:00 +15°C° 0 mm 4 mps 750 mmHg 72%
    19:00 +14°C° 0 mm 3 mps 750 mmHg 78%
    20:00 +12°C° 0 mm 3 mps 750 mmHg 79%
    21:00 +11°C° 0 mm 3 mps 751 mmHg 79%
    22:00 +10°C° 0 mm 3 mps 751 mmHg 80%
    23:00 +9°C° 0 mm 3 mps 751 mmHg 80%

    30 May, Thursday

    Time Temperature Precipitation Wind Pressure Humidity
    00:00 +9°C° 0 mm 3 mps 751 mmHg 81%
    01:00 +8°C° 0 mm 2 mps 752 mmHg 81%
    02:00 +7°C° 0 mm 2 mps 752 mmHg 82%
    03:00 +7°C° 0 mm 2 mps 752 mmHg 84%
    04:00 +6°C° 0 mm 2 mps 752 mmHg 86%
    05:00 +8°C° 0 mm 2 mps 752 mmHg 79%
    06:00 +9°C° 0 mm 2 mps 752 mmHg 73%
    07:00 +10°C° 0 mm 2 mps 753 mmHg 67%
    08:00 +12°C° 0 mm 1 mps 753 mmHg 63%
    09:00 +13°C° 0 mm 1 mps 753 mmHg 60%
    10:00 +13°C° 0 mm 1 mps 753 mmHg 57%
    11:00 +14°C° 0 mm 1 mps 752 mmHg 55%
    12:00 +15°C° 0 mm 1 mps 752 mmHg 53%
    13:00 +15°C° 0 mm 1 mps 752 mmHg 52%
    14:00 +16°C° 0 mm 1 mps 752 mmHg 49%
    15:00 +18°C° 0 mm 1 mps 752 mmHg 47%
    16:00 +19°C° 0 mm 1 mps 752 mmHg 44%
    17:00 +18°C° 0 mm 1 mps 752 mmHg 50%
    18:00 +15°C° 0 mm 1 mps 752 mmHg 56%
    19:00 +14°C° 0 mm 1 mps 752 mmHg 62%
    20:00 +13°C° 0 mm 1 mps 752 mmHg 61%
    21:00 +12°C° 0 mm 1 mps 752 mmHg 61%
    22:00 +11°C° 0 mm 1 mps 752 mmHg 60%
    23:00 +11°C° 0 mm 1 mps 752 mmHg 59%

    31 May, Friday

    Time Temperature Precipitation Wind Pressure Humidity
    00:00 +11°C° 0 mm 1 mps 752 mmHg 59%
    01:00 +10°C° 0 mm 1 mps 752 mmHg 59%
    02:00 +10°C° 0 mm 1 mps 752 mmHg 60%
    03:00 +10°C° 0 mm 1 mps 751 mmHg 62%
    04:00 +10°C° 0 mm 1 mps 751 mmHg 63%
    05:00 +12°C° 0 mm 1 mps 751 mmHg 61%
    06:00 +14°C° 0 mm 1 mps 751 mmHg 58%
    07:00 +16°C° 0 mm 1 mps 751 mmHg 56%
    08:00 +18°C° 0 mm 1 mps 751 mmHg 52%
    09:00 +20°C° 0 mm 1 mps 750 mmHg 49%
    10:00 +22°C° 0 mm 1 mps 750 mmHg 45%
    11:00 +21°C° 0 mm 0 mps 750 mmHg 44%
    12:00 +22°C° 0 mm 0 mps 749 mmHg 42%
    13:00 +22°C° 0 mm 0 mps 749 mmHg 41%
    14:00 +22°C° 0 mm 0 mps 749 mmHg 41%
    15:00 +22°C° 0 mm 0 mps 749 mmHg 41%
    16:00 +22°C° 0 mm 0 mps 748 mmHg 41%
    17:00 +21°C° 0 mm 0 mps 748 mmHg 47%
    18:00 +19°C° 0 mm 0 mps 748 mmHg 54%
    19:00 +18°C° 0 mm 0 mps 748 mmHg 61%
    20:00 +19°C° 0 mm 1 mps 748 mmHg 67%
    21:00 +17°C° 0 mm 2 mps 749 mmHg 74%
    22:00 +16°C° 0 mm 3 mps 749 mmHg 80%
    23:00 +16°C° 0.2 mm 3 mps 749 mmHg 85%

    1 June, Saturday

    Time Temperature Precipitation Wind Pressure Humidity
    00:00 +15°C° 0.2 mm 4 mps 749 mmHg 90%
    01:00 +15°C° 0.2 mm 5 mps 749 mmHg 96%
    02:00 +14°C° 0.5 mm 5 mps 750 mmHg 95%
    03:00 +14°C° 0.5 mm 6 mps 750 mmHg 95%
    04:00 +13°C° 0.5 mm 6 mps 750 mmHg 94%
    05:00 +13°C° 0.2 mm 6 mps 751 mmHg 94%
    06:00 +13°C° 0.2 mm 6 mps 751 mmHg 93%
    07:00 +11°C° 0.2 mm 6 mps 751 mmHg 92%
    08:00 +11°C° 0.1 mm 7 mps 752 mmHg 90%
    09:00 +11°C° 0.1 mm 7 mps 752 mmHg 88%
    10:00 +12°C° 0.1 mm 7 mps 753 mmHg 86%
    11:00 +12°C° 0.1 mm 7 mps 753 mmHg 85%
    12:00 +12°C° 0.1 mm 7 mps 753 mmHg 83%
    13:00 +13°C° 0.1 mm 6 mps 753 mmHg 82%
    14:00 +14°C° 0 mm 6 mps 753 mmHg 80%
    15:00 +14°C° 0 mm 6 mps 753 mmHg 77%
    16:00 +15°C° 0 mm 6 mps 753 mmHg 75%
    17:00 +14°C° 0 mm 6 mps 753 mmHg 74%
    18:00 +14°C° 0 mm 6 mps 754 mmHg 74%
    19:00 +13°C° 0 mm 5 mps 754 mmHg 74%
    20:00 +12°C° 0 mm 5 mps 754 mmHg 72%
    21:00 +12°C° 0 mm 5 mps 755 mmHg 69%
    22:00 +10°C° 0 mm 6 mps 755 mmHg 67%
    23:00 +9°C° 0 mm 5 mps 755 mmHg 70%
    Show more